User: anonymous   Login
Location: Kuffner-Sternwarte
(48.2130°N, 16.2960°E)
Time: 20:17:24
(UTC+02:00)
Language:

DELFI C3 - Orbit

View from above orbital plane
View from above orbital plane
View from above satellite
View from above satellite

Ground track
Ground track

The orbit data is extracted from the following two-line orbital elements,

1 32789U 08021G   19174.93013690 +.00000580 +00000-0 +42770-4 0  9990
2 32789 097.4638 224.4377 0014041 106.3068 253.9706 15.06960443607655
Epoch (UTC): 23 June 2019 22:19:23
Eccentricity: 0.0014041
inclination: 97.4638°
perigee height: 536 km
apogee height: 555 km
right ascension of ascending node: 224.4377°
argument of perigee: 106.3068°
revolutions per day: 15.06960443
mean anomaly at epoch: 253.9706°
orbit number at epoch: 60765

The dashed part of the orbit path shows where the satellite is in the earth's shadow,  

DLR